sat.trackr.live / text

‹ back to catalog

STARLINK-35004

NORAD 65428 · 2025-192AA

PAYLOAD ACTIVE UNKNOWN

§ Identity

Operator
Country
US
Launch date
2025-08-31
Launch site
AFETR
Launch vehicle
Mass (kg)
RCS (m²)

Purposes: comms

External: N2YO · Heavens-Above · Gunter

§ Orbital elements

Epoch: 2026-05-24T23:53:08.723040Z

Period
94.10 min
Inclination
53.1581°
Eccentricity
0.0001264
Mean motion
15.30205781 rev/d
Perigee alt
474.3 km
Apogee alt
476.1 km
Semi-major
6,853.3 km
B*
8.8001e-4
RAAN
238.1433°
Arg perigee
82.8209°
Mean anomaly
277.2935°
Rev number
4,106

§ Raw data

STARLINK-350041 65428U 25192AA  26144.99523985  .00025800  00000+0  88001-3 0  99952 65428  53.1581 238.1433 0001264  82.8209 277.2935 15.30205781 41064

JSON: /api/v1/satellites/65428 · /tle

For live sub-satellite position, see the globe view (requires WebGL).

§ Visibility from observer

Set your observer location to see the next 7 days of passes ≥ 10°. The values pass through the URL so the page stays shareable.

No JS? Fill the form by hand. The geolocation button needs JavaScript.